CamptonHillsWeather.com

Find the Weather for any City, State  
or Zipcode, or Country:

Campton Hills, IL Weather
Local Radar

Local Radar

Graphs, Details
Graphs and Gauges
Detailed Weather
Detailed Reports
Ajax Version (old)
Central Kane Co Summary
Davis Current Weather Graphs
Davis 24 Hour Weather History

CW3778 Data

Weather Underground
Maps
Temperature
Heat Index
Windchill
Humidity
Radar
Dew Point
Wind
Visibility
Visible Satellite
Satellite
Fronts
Snow Depth
Jet Stream
Flight Rules
Forecast Maps
Temperature Forecast
Maximum Temperature Forecast
Minimum Temperature Forecast
Dewpoint Forecast
Prevalent Weather
12Hr Probability of Precip.
Sky Cover
Health Maps
UV Forecast
Air Quality
Peak Air Quality Index
Weather Station
Davis Instruments Vantage Pro
Current Conditions [Select Refresh to Update]

Updated: 10:37am on 5/26/15

(location)
Currently:
70.2F

Clear
Overcast

High: 70.4 F< 
(10:31am
Low: 64.5 F 
(4:32am)
Wind: SE 4 mph
Light Breeze
Gust: 11 mph
Today's High Wind: 11 mph (7:47am)
Humidity: 90%
Pressure: 29.80 in  (Falling
Pressure Rate: -0.042 in/hr
Dew Point: 67.1F
Wind Chill: 70.2 F
Heat Index (feels like): 75.8 F
Comfort Level: Comfortable
Temperature Rate:  1.40F/hr
 
5 Day Forecast
 
Tue Wed Thu Fri Sat
Clear Clear Clear Clear Clear
Chance T-storms Chance T-storms Mostly Cloudy T-storms Chance T-storms
77 78 82 82 64
61 58 61 58 47

Records and Normals
 
Temperature Forecast Normal Record
High 77 74 89
(2014)
Low 61 51 37
(2001)
 
Links
 
 
Weather Advisories
No Advisories
Full Advisory Text...
Weather Map

Web Cam

Almanac
 
Sunrise:  
5:24am
Moonrise: 
1:34pm

Moon Phase:
57%

Sunset: 
8:17pm
Moonset:  
1:44am
 Star Chart...
Rainfall Totals
Hourly Rain 0.00 in
Daily Rain: 0.00 in
Monthly Rain: 4.19 in
Yearly Rain: 10.04 in
Normal Rain, month to date: 3.55 in
Normal Rain, year to date: 10.12 in
Link to Village of Campton Hills Map

Link to Counties of Illinois Map

Local Weather Exchange Network
Station ID City 
(Click for Map Location)
Neighborhood 
(Click for History)
Last Update (Date & Time) Temperature
 ()
Dew
Point ()
Humidity 
(%)
Wind 
(mph)
from the Wind Gust 
(mph) 
Pressure(in) Hourly
Rain(in)
KILSAINT10 Saint Charles Saint Charles Burr Road 05/26 10:21:53 71.8 69.0 90 3 NE 0 29.55 0.00
MD5528 Wasco APRSWXNET 05/26 09:55:00 68.0 65.0 89 0 North 0 29.81 0.00
KILGENEV5 Geneva meso_neigh3 05/26 10:29:26 70.8 67.0 87 9 SSE 9 29.76 0.00
KILSTCHA10 St. Charles Hunt Club 05/26 10:30:02 71.8 49.0 44 3 SSE 5 29.39 0.00
KILSAINT8 Saint Charles St. Charles Near West Side 05/26 10:26:29 72.0 68.0 88 1 West 0 29.62 0.00
KILWAYNE4 Wayne Hampton Course 05/26 10:26:31 69.8 67.0 91 0 North 0 29.96 0.00
KILSAINT7 Saint Charles Silver Glen 05/26 10:29:46 71.1 67.0 86 2 SW 2 29.44 0.00
KILSOUTH6 South Elgin Thornwood 05/26 10:30:12 72.1 69.0 90 3 NE 7 27.91 0.00
KILCAMPT3 Campton Hills Campton Hills 05/26 10:30:11 71.3 69.0 92 0 SE 14 29.83 0.00
KILSAINT6 Saint Charles 3 Lakes 05/26 10:15:51 68.4 48.0 49 0 NNW 0 29.60 0.00
KILSAINT9 Saint Charles Fox Chase 05/26 10:30:01 72.0 67.0 84 0 SSW 0 29.83 0.00
KILGENEV6 Geneva Dover Ridge 05/26 10:30:01 71.0 67.0 88 4 South 4 29.78 0.00
KILGENEV10 Geneva Southampton Drive 05/26 10:26:44 70.9 68.0 89 0 North 0 29.93 0.00
KILSTCHA8 St. Charles Ronzheimer Ave. & S. Tyler Rd. 05/26 10:30:06 71.0 67.0 88 5 East 14 29.79 0.00
KILGENEV9 Geneva Saint Andrews Circle 05/26 10:26:07 71.2 68.0 88 0 North 0 29.93 0.00
KILGENEV3 Geneva Mill Creek (NE) 05/26 10:30:09 71.1 67.0 88 9 ESE 12 29.79 0.00
KILSTCHA1 St Charles CamptonHillsWeather.com Central Kane County 05/26 10:30:11 70.3 68.0 91 7 SE 10 29.81 0.00
KILGENEV7 Geneva Eldorado Drive 05/26 10:26:24 70.7 67.0 88 0 North 0 29.79 0.00
KILSOUTH5 South Elgin Concord Park 05/26 10:23:32 72.0 69.0 91 5 SSE 0 29.59 0.00
KILGENEV2 Geneva Mill Creek 05/26 10:15:50 70.7 67.0 88 2 ESE 12 29.77 0.00
KILBATAV7 Batavia Charleston Street 05/26 10:25:59 70.2 66.0 88 0 North 0 29.94 0.00
KILBATAV6 Batavia Tri Cities on the Fox River 2 05/26 10:30:11 67.1 63.0 88 1 SE 14 29.87 0.00
KILBATAV1 Batavia Tri-Cities on the Fox River 05/26 10:29:03 71.8 67.0 84 0 East 15 29.82 0.00
KILELGIN16 Elgin Providence Subdivision 05/26 10:17:48 71.8 65.0 80 3 West 0 29.60 0.00
KILELBUR10 Elburn Prairie Valley North 05/26 10:29:46 70.0 68.0 92 8 ESE 13 29.92 0.00
KILBATAV9 Batavia Deerpath Road 05/26 10:26:36 70.7 66.0 84 0 North 0 29.82 0.00
KILELBUR9 Elburn Griffith Avenue 05/26 10:26:24 70.0 67.0 91 0 North 0 29.07 0.00
KILELBUR5 Elburn Prairie Highlands 05/26 10:25:16 70.5 68.0 91 1 East 10 29.80 0.00
KILWESTC12 West Chicago Woodland Avenue 05/26 10:26:56 70.0 66.0 88 0 North 0 29.93 0.00
KILBATAV3 Batavia West Batavia 05/26 10:19:00 71.0 68.0 90 1 SSE 0 29.78 0.00
KILELBUR6 Elburn Columbine Square 05/26 10:21:04 70.5 67.0 89 4 SE 12 29.76 0.00
KILBATAV5 Batavia Fermi National Accelerator Laboratory 05/26 10:29:19 71.5 67.0 86 7 SE 15 29.76 0.00
KILELBUR8 Elburn Columbine 05/26 10:20:38 70.4 67.0 90 7 SSE 15 29.78 0.00
KILWESTC5 West Chicago THEBROWNHOUSE.ORG 05/26 10:30:11 75.9 65.0 69 0 North 0 29.84 0.00
KILWESTC8 West Chicago Ingalton Hills Estates 05/26 10:29:43 72.0 67.0 85 6 ENE 6 29.87 0.00
KILNORTH11 North Aurora Waterford Oaks 05/26 10:30:14 71.6 68.0 88 14 ESE 19 29.78 0.00
KILELGIN10 Elgin Wing Park, Elgin, IL 05/26 10:30:11 73.9 68.0 83 0 ESE 0 29.80 0.00
KILELGIN14 Elgin Elgin, IL 05/26 10:30:14 70.5 66.0 86 3 SSE 5 29.78 0.00
KDPA Chicago DuPage Official Station 05/26 09:52:00 71.0 65.0 81 16 SSE --- 29.85 ---
KARR Aurora Official Station 05/26 09:52:00 72.0 65.0 78 15 SE --- 29.85 ---
Full Advisory Text
No Warnings

Ambient Weather and Weather Underground
 Never base important decisions on this or any weather information obtained from the Internet
Updated Automatically by Ambient Weather's Virtual Weather Station  V13.01